Weather History for Westfield, MA

Change the Weather History Date:

Saturday, December 8, 2012

  Actual Average Record
Temperature  
Mean Temperature 40 °F -  
Max Temperature 43 °F 38 °F 53 °F (2004)
Min Temperature 37 °F 22 °F 8 °F (2008)
Degree Days  
Heating Degree Days 25    
Moisture  
Dew Point 37 °F    
Average Humidity 91    
Maximum Humidity 93    
Minimum Humidity 87    
Precipitation  
Precipitation 0.23 in - - ()
Sea Level Pressure  
Sea Level Pressure 29.96 in    
Wind  
Wind Speed 1 mph (NNE)    
Max Wind Speed 7 mph    
Max Gust Speed -    
Visibility 2 miles    
Events Fog , Rain    
Averages and records for this station are not official NWS values.
T = Trace of Precipitation, MM = Missing Value Source: NWS Daily Summary

Daily Weather History Graph

Daily Weather History Graph

Search for Another Location

Airport:

Trip Planner

Search our weather history database for the weather conditions in past years. The results will help you decide how hot, cold, wet, or windy it might be!

Date:

Astronomy

Dec. 08, 2012 Rise Set
Actual Time 7:07 AM EST 4:18 PM EST
Civil Twilight 6:35 AM EST 4:50 PM EST
Nautical Twilight 6:00 AM EST 5:25 PM EST
Astronomical Twilight 5:26 AM EST 5:59 PM EST
Moon 1:23 AM EST (12/8) 12:51 PM EST (12/8)
Length of Visible Light 10h 14m
Length of Day
9h 11m
Waning Crescent, 28% of the Moon is Illuminated
Dec 8
Waning Crescent
Dec 13
New
Dec 20
First Quarter
Dec 28
Full
Jan 4
Last Quarter

Hourly Weather History & Observations

Time (EST) Temp. Windchill Dew Point Humidity Pressure Visibility Wind Dir Wind Speed Gust Speed Precip Events Conditions
12:20 AM 37.4 °F - 33.8 °F 87% 30.02 in 0.2 mi Calm Calm - 0.00 in Fog Fog
12:34 AM 37.4 °F - 35.6 °F 93% 30.02 in 0.5 mi Calm Calm - 0.00 in Fog Fog
12:53 AM 37.9 °F - 35.1 °F 89% 30.03 in 0.5 mi Calm Calm - 0.00 in Fog Fog
1:28 AM 37.4 °F - 35.6 °F 93% 30.01 in 0.2 mi Calm Calm - N/A Fog Fog
1:39 AM 37.4 °F - 35.6 °F 93% 30.01 in 0.2 mi Calm Calm - N/A Fog Fog
1:49 AM 37.4 °F - 35.6 °F 93% 30.01 in 0.5 mi Calm Calm - N/A Fog Fog
1:53 AM 37.9 °F - 36.0 °F 93% 30.03 in 0.5 mi Calm Calm - N/A Fog Fog
2:13 AM 37.4 °F - 35.6 °F 93% 30.01 in 1.2 mi Calm Calm - N/A   Overcast
2:41 AM 37.4 °F - 35.6 °F 93% 30.01 in 0.8 mi Calm Calm - 0.01 in Rain Light Rain
2:53 AM 37.9 °F - 36.0 °F 93% 30.02 in 0.5 mi Calm Calm - 0.01 in Fog , Rain Light Rain
3:01 AM 37.4 °F - 35.6 °F 93% 30.00 in 1.0 mi Calm Calm - 0.01 in Rain Light Rain
3:09 AM 37.4 °F - 35.6 °F 93% 29.99 in 1.2 mi Calm Calm - 0.01 in Rain Light Rain
3:21 AM 37.4 °F - 35.6 °F 93% 30.00 in 1.8 mi Calm Calm - 0.01 in Rain Light Rain
3:23 AM 37.4 °F - 35.6 °F 93% 30.00 in 2.0 mi Calm Calm - 0.01 in Rain Light Rain
3:34 AM 37.4 °F - 35.6 °F 93% 29.99 in 2.0 mi Calm Calm - 0.02 in Rain Light Rain
3:45 AM 37.4 °F - 35.6 °F 93% 30.00 in 2.5 mi Calm Calm - 0.03 in Rain Light Rain
3:53 AM 37.9 °F - 35.1 °F 89% 30.01 in 2.5 mi Calm Calm - 0.03 in Rain Light Rain
4:53 AM 37.9 °F - 35.1 °F 89% 29.98 in 2.5 mi Calm Calm - 0.06 in Rain Light Rain
5:04 AM 37.4 °F 34.9 °F 35.6 °F 93% 29.97 in 3.0 mi NNE 3.5 mph - 0.01 in Rain Light Rain
5:16 AM 37.4 °F - 35.6 °F 93% 29.96 in 4.0 mi Calm Calm - 0.02 in Rain Light Rain
5:31 AM 37.4 °F 34.9 °F 35.6 °F 93% 29.97 in 4.0 mi NNW 3.5 mph - 0.02 in Rain Light Rain
5:53 AM 37.9 °F - 35.1 °F 89% 29.98 in 2.5 mi Calm Calm - 0.04 in Rain Light Rain
6:06 AM 37.4 °F 34.9 °F 35.6 °F 93% 29.96 in 3.0 mi NNE 3.5 mph - 0.00 in Rain Light Rain
6:19 AM 37.4 °F 33.8 °F 35.6 °F 93% 29.96 in 3.0 mi North 4.6 mph - 0.00 in Rain Light Rain
6:31 AM 37.4 °F 34.9 °F 35.6 °F 93% 29.96 in 2.5 mi NNE 3.5 mph - 0.03 in Rain Rain
6:43 AM 37.4 °F - 35.6 °F 93% 29.96 in 1.5 mi Calm Calm - 0.04 in Rain Light Rain
6:53 AM 37.9 °F 34.4 °F 35.1 °F 89% 29.97 in 1.5 mi North 4.6 mph - 0.04 in Rain Light Rain
7:00 AM 37.4 °F 33.8 °F 35.6 °F 93% 29.95 in 5.0 mi North 4.6 mph - 0.00 in Rain Light Rain
7:03 AM 37.4 °F 33.8 °F 35.6 °F 93% 29.95 in 1.0 mi North 4.6 mph - 0.00 in Rain Light Rain
7:53 AM 37.9 °F 34.4 °F 36.0 °F 93% 29.95 in 1.0 mi North 4.6 mph - 0.01 in Rain Light Rain
7:56 AM 37.4 °F 33.8 °F 35.6 °F 93% 29.94 in 2.0 mi North 4.6 mph - 0.00 in Rain Light Rain
8:32 AM 37.4 °F 32.1 °F 35.6 °F 93% 29.95 in 1.0 mi North 6.9 mph - 0.01 in Rain Light Rain
8:53 AM 37.9 °F 32.7 °F 35.1 °F 89% 29.96 in 1.0 mi NNE 6.9 mph - 0.02 in Rain Light Rain
9:53 AM 39.9 °F 37.8 °F 37.0 °F 89% 29.96 in 1.0 mi North 3.5 mph - 0.01 in   Overcast
10:53 AM 39.9 °F 35.1 °F 37.0 °F 89% 29.94 in 1.0 mi North 6.9 mph - 0.00 in Rain Light Rain
11:53 AM 41.0 °F 38.0 °F 37.9 °F 89% 29.91 in 1.0 mi North 4.6 mph - 0.00 in   Overcast
12:53 PM 42.1 °F 40.2 °F 39.0 °F 89% 29.88 in 1.0 mi NE 3.5 mph - N/A   Overcast
1:00 PM 42.8 °F 41.1 °F 39.2 °F 87% 29.86 in 6.0 mi NNE 3.5 mph - N/A   Overcast
1:53 PM 43.0 °F 41.3 °F 39.9 °F 89% 29.88 in 8.0 mi North 3.5 mph - N/A   Overcast
2:05 PM 42.8 °F 40.1 °F 39.2 °F 87% 29.87 in 8.0 mi North 4.6 mph - N/A   Overcast
2:31 PM 42.8 °F - 39.2 °F 87% 29.87 in 10.0 mi Calm Calm - N/A   Overcast
2:53 PM 43.0 °F - 39.9 °F 89% 29.89 in 10.0 mi Calm Calm - N/A   Overcast
3:53 PM 43.0 °F - 39.9 °F 89% 29.88 in 10.0 mi Calm Calm - N/A   Overcast
4:53 PM 43.0 °F - 39.9 °F 89% 29.90 in 10.0 mi Calm Calm - N/A   Overcast
5:53 PM 42.1 °F - 39.9 °F 92% 29.91 in 7.0 mi Calm Calm - N/A   Overcast
6:44 PM 42.8 °F 41.1 °F 39.2 °F 87% 29.90 in 1.8 mi SSE 3.5 mph - N/A   Overcast
6:53 PM 42.1 °F 40.2 °F 39.9 °F 92% 29.92 in 0.8 mi SSE 3.5 mph - N/A   Mist
7:53 PM 43.0 °F - 41.0 °F 93% 29.93 in 0.5 mi Calm Calm - N/A Fog Fog
7:57 PM 42.8 °F - 41.0 °F 93% 29.92 in 0.2 mi Calm Calm - N/A Fog Fog
8:53 PM 43.0 °F - 41.0 °F 93% 29.94 in 0.2 mi Calm Calm - N/A Fog Fog
9:53 PM 43.0 °F - 41.0 °F 93% 29.96 in 0.2 mi Calm Calm - N/A Fog Fog
10:53 PM 42.1 °F 40.2 °F 39.9 °F 92% 29.98 in 0.2 mi SSW 3.5 mph - N/A Fog Fog
11:18 PM 42.8 °F - 39.2 °F 87% 29.96 in 0.2 mi Calm Calm - N/A Fog Fog
11:53 PM 41.0 °F - 39.0 °F 93% 29.99 in 0.2 mi Calm Calm - 0.01 in Fog Fog